HZ101 OEGS-OERK

Flight info

Callsign HZ101
Flight time 0h 36m
Altitude 24000
Route GAS G662 SIVIS
Aircraft B737/M-SDE2E3FGHIRWXY/LB1

Departure

Time 2026-04-20 20:46
Airport Prince Naif bin Abdulaziz International Airport (OEGS)

Arrival

Time 2026-04-20 21:22
Airport King Khalid International Airport (OERK)
Time Latitude Longitude Altitude Speed Heading
2026-04-20 20:32 26.30318 43.77054 2135 ft 0 kts 242°
2026-04-20 20:39 26.30325 43.77067 2135 ft 2 kts 242°
2026-04-20 20:39 26.30332 43.77083 2135 ft 2 kts 243°
2026-04-20 20:39 26.30337 43.77101 2135 ft 2 kts 276°
2026-04-20 20:40 26.30333 43.77118 2135 ft 2 kts 302°
2026-04-20 20:40 26.30325 43.77129 2135 ft 1 kts 325°
2026-04-20 20:40 26.30323 43.77130 2135 ft 0 kts 327°
2026-04-20 20:42 26.30326 43.77129 2135 ft 2 kts 331°
2026-04-20 20:42 26.30354 43.77114 2135 ft 8 kts 334°
2026-04-20 20:42 26.30395 43.77093 2135 ft 12 kts 334°
2026-04-20 20:43 26.30524 43.77023 2135 ft 19 kts 333°
2026-04-20 20:43 26.30607 43.76975 2136 ft 22 kts 332°
2026-04-20 20:43 26.30754 43.76889 2136 ft 26 kts 332°
2026-04-20 20:43 26.30914 43.76799 2135 ft 25 kts 333°
2026-04-20 20:44 26.31062 43.76713 2136 ft 23 kts 332°
2026-04-20 20:44 26.31202 43.76635 2136 ft 21 kts 334°
2026-04-20 20:44 26.31319 43.76604 2137 ft 17 kts 13°
2026-04-20 20:44 26.31430 43.76655 2137 ft 11 kts 44°
2026-04-20 20:45 26.31455 43.76705 2137 ft 11 kts 75°
2026-04-20 20:45 26.31418 43.76770 2136 ft 10 kts 154°
2026-04-20 20:45 26.31402 43.76778 2136 ft 0 kts 153°
2026-04-20 20:45 26.31401 43.76779 2136 ft 2 kts 153°
2026-04-20 20:46 26.31197 43.76894 2135 ft 70 kts 153°
2026-04-20 20:46 26.30551 43.77261 2135 ft 135 kts 152°
2026-04-20 20:46 26.29615 43.77789 2429 ft 160 kts 153°
2026-04-20 20:46 26.28595 43.78360 3060 ft 169 kts 153°
2026-04-20 20:47 26.27485 43.78991 3567 ft 187 kts 153°
2026-04-20 20:47 26.26289 43.79679 4026 ft 207 kts 152°
2026-04-20 20:47 26.24928 43.80460 4229 ft 231 kts 152°
2026-04-20 20:47 26.24413 43.80756 4286 ft 240 kts 152°
2026-04-20 20:48 26.23327 43.81368 4452 ft 254 kts 152°
2026-04-20 20:48 26.21686 43.82299 4836 ft 272 kts 150°
2026-04-20 20:48 26.20265 43.83672 5681 ft 270 kts 123°
2026-04-20 20:49 26.19607 43.85591 6670 ft 268 kts 97°
2026-04-20 20:49 26.19795 43.87692 7379 ft 281 kts 72°
2026-04-20 20:49 26.20606 43.89717 8052 ft 292 kts 65°
2026-04-20 20:49 26.21511 43.91735 8774 ft 298 kts 67°
2026-04-20 20:50 26.21986 43.93985 9451 ft 302 kts 94°
2026-04-20 20:50 26.21513 43.96251 10187 ft 305 kts 116°
2026-04-20 20:50 26.20602 43.98487 10466 ft 331 kts 118°
2026-04-20 20:50 26.19530 44.00848 10622 ft 353 kts 122°
2026-04-20 20:51 26.18320 44.03325 10818 ft 375 kts 122°
2026-04-20 20:51 26.17051 44.05931 11171 ft 388 kts 121°
2026-04-20 20:51 26.15776 44.08613 11744 ft 395 kts 121°
2026-04-20 20:51 26.14493 44.11348 12331 ft 402 kts 121°
2026-04-20 20:52 26.13197 44.14134 12974 ft 408 kts 121°
2026-04-20 20:52 26.11891 44.16954 13675 ft 412 kts 121°
2026-04-20 20:52 26.10578 44.19795 14379 ft 415 kts 122°
2026-04-20 20:52 26.09264 44.22639 15013 ft 421 kts 122°
2026-04-20 20:53 26.07915 44.25552 15655 ft 426 kts 122°
2026-04-20 20:53 26.06554 44.28494 16300 ft 430 kts 122°
2026-04-20 20:53 26.05176 44.31465 16955 ft 434 kts 123°
2026-04-20 20:53 26.03786 44.34463 17588 ft 438 kts 123°
2026-04-20 20:54 26.02382 44.37484 18179 ft 441 kts 123°
2026-04-20 20:54 26.00961 44.40531 18718 ft 446 kts 123°
2026-04-20 20:54 25.99530 44.43605 19291 ft 450 kts 123°
2026-04-20 20:54 25.98090 44.46703 19928 ft 452 kts 123°
2026-04-20 20:55 25.96646 44.49809 20496 ft 454 kts 123°
2026-04-20 20:55 25.95186 44.52943 20998 ft 458 kts 123°
2026-04-20 20:55 25.93715 44.56096 21480 ft 462 kts 122°
2026-04-20 20:55 25.92232 44.59275 21976 ft 464 kts 122°
2026-04-20 20:56 25.90759 44.62431 22425 ft 468 kts 122°
2026-04-20 20:56 25.89254 44.65654 22844 ft 471 kts 122°
2026-04-20 20:56 25.87739 44.68894 23273 ft 474 kts 122°
2026-04-20 20:56 25.86215 44.72150 23693 ft 477 kts 122°
2026-04-20 20:57 25.84675 44.75430 23933 ft 483 kts 122°
2026-04-20 20:57 25.83114 44.78752 23924 ft 485 kts 122°
2026-04-20 20:57 25.81561 44.82063 23926 ft 482 kts 122°
2026-04-20 20:57 25.80019 44.85352 23923 ft 479 kts 122°
2026-04-20 20:58 25.78474 44.88637 23928 ft 481 kts 122°
2026-04-20 20:58 25.76925 44.91930 23930 ft 481 kts 122°
2026-04-20 20:58 25.75392 44.95185 23935 ft 482 kts 122°
2026-04-20 20:58 25.73840 44.98480 23935 ft 482 kts 122°
2026-04-20 20:59 25.72284 45.01780 23933 ft 482 kts 122°
2026-04-20 20:59 25.70731 45.05074 23941 ft 482 kts 123°
2026-04-20 20:59 25.69177 45.08367 23937 ft 482 kts 123°
2026-04-20 20:59 25.67622 45.11660 23939 ft 482 kts 123°
2026-04-20 21:00 25.66066 45.14950 23936 ft 482 kts 123°
2026-04-20 21:00 25.64508 45.18241 23935 ft 482 kts 123°
2026-04-20 21:00 25.62948 45.21531 23932 ft 482 kts 123°
2026-04-20 21:00 25.61390 45.24817 23943 ft 481 kts 123°
2026-04-20 21:01 25.59836 45.28097 23942 ft 481 kts 123°
2026-04-20 21:01 25.58277 45.31383 23954 ft 482 kts 123°
2026-04-20 21:01 25.56719 45.34664 23943 ft 482 kts 123°
2026-04-20 21:01 25.55158 45.37949 23940 ft 482 kts 123°
2026-04-20 21:02 25.53598 45.41233 23945 ft 482 kts 123°
2026-04-20 21:02 25.52037 45.44514 23938 ft 482 kts 123°
2026-04-20 21:02 25.50475 45.47794 23945 ft 482 kts 123°
2026-04-20 21:02 25.48912 45.51074 23953 ft 482 kts 123°
2026-04-20 21:03 25.47348 45.54356 23954 ft 482 kts 123°
2026-04-20 21:03 25.45783 45.57638 23952 ft 483 kts 123°
2026-04-20 21:03 25.44211 45.60928 23946 ft 483 kts 123°
2026-04-20 21:03 25.42643 45.64209 23950 ft 483 kts 123°
2026-04-20 21:04 25.41074 45.67490 23900 ft 478 kts 123°
2026-04-20 21:04 25.39540 45.70702 23298 ft 471 kts 123°
2026-04-20 21:04 25.38029 45.73858 22503 ft 469 kts 123°
2026-04-20 21:04 25.36675 45.77196 21695 ft 472 kts 114°
2026-04-20 21:05 25.35833 45.80699 21028 ft 471 kts 105°
2026-04-20 21:05 25.35481 45.84288 20379 ft 470 kts 95°
2026-04-20 21:05 25.35447 45.87873 19740 ft 463 kts 94°
2026-04-20 21:05 25.35436 45.91416 19078 ft 458 kts 94°
2026-04-20 21:06 25.35409 45.94912 18398 ft 452 kts 95°
2026-04-20 21:06 25.35358 45.98364 17762 ft 445 kts 96°
2026-04-20 21:06 25.35291 46.01761 17148 ft 438 kts 96°
2026-04-20 21:06 25.35248 46.05070 16570 ft 433 kts 95°
2026-04-20 21:07 25.35188 46.08332 15863 ft 415 kts 98°
2026-04-20 21:07 25.34584 46.11370 14787 ft 400 kts 119°
2026-04-20 21:07 25.33164 46.13935 13830 ft 385 kts 133°
2026-04-20 21:07 25.31319 46.16001 12855 ft 372 kts 146°
2026-04-20 21:08 25.29157 46.17511 11905 ft 366 kts 154°
2026-04-20 21:08 25.26933 46.18880 11183 ft 365 kts 153°
2026-04-20 21:08 25.24744 46.20236 10870 ft 352 kts 152°
2026-04-20 21:08 25.22659 46.21545 10657 ft 338 kts 152°
2026-04-20 21:09 25.20660 46.22815 10509 ft 325 kts 151°
2026-04-20 21:09 25.18745 46.24035 10373 ft 312 kts 151°
2026-04-20 21:09 25.16901 46.25211 10238 ft 300 kts 151°
2026-04-20 21:09 25.15125 46.26344 10114 ft 290 kts 151°
2026-04-20 21:10 25.13407 46.27439 9993 ft 281 kts 151°
2026-04-20 21:10 25.11735 46.28507 9719 ft 277 kts 151°
2026-04-20 21:10 25.10069 46.29569 9430 ft 275 kts 150°
2026-04-20 21:10 25.08417 46.30621 9127 ft 273 kts 150°
2026-04-20 21:11 25.06777 46.31669 8815 ft 272 kts 149°
2026-04-20 21:11 25.05143 46.32712 8520 ft 271 kts 149°
2026-04-20 21:11 25.03511 46.33751 8202 ft 271 kts 150°
2026-04-20 21:11 25.01876 46.34788 7898 ft 270 kts 149°
2026-04-20 21:12 25.00251 46.35819 7583 ft 269 kts 149°
2026-04-20 21:12 24.98631 46.36847 7287 ft 268 kts 149°
2026-04-20 21:12 24.97113 46.37991 7101 ft 263 kts 132°
2026-04-20 21:12 24.96237 46.39733 7031 ft 262 kts 104°
2026-04-20 21:13 24.96132 46.41707 6997 ft 258 kts 82°
2026-04-20 21:13 24.96704 46.43547 6997 ft 250 kts 63°
2026-04-20 21:13 24.97543 46.45174 6989 ft 239 kts 60°
2026-04-20 21:13 24.98390 46.46740 7018 ft 237 kts 60°
2026-04-20 21:14 24.99319 46.48263 6998 ft 245 kts 46°
2026-04-20 21:14 25.00787 46.49208 7008 ft 251 kts 16°
2026-04-20 21:14 25.02528 46.49158 6998 ft 256 kts 343°
2026-04-20 21:14 25.04136 46.48312 6997 ft 257 kts 331°
2026-04-20 21:15 25.05646 46.47333 6980 ft 250 kts 330°
2026-04-20 21:15 25.07133 46.46361 6981 ft 241 kts 330°
2026-04-20 21:15 25.08575 46.45472 6980 ft 241 kts 340°
2026-04-20 21:15 25.10214 46.45351 6976 ft 240 kts 17°
2026-04-20 21:16 25.11615 46.46289 6855 ft 236 kts 48°
2026-04-20 21:16 25.12533 46.47765 6750 ft 232 kts 61°
2026-04-20 21:16 25.13315 46.49319 6621 ft 231 kts 62°
2026-04-20 21:16 25.14086 46.50848 6474 ft 225 kts 62°
2026-04-20 21:17 25.14843 46.52335 6287 ft 220 kts 61°
2026-04-20 21:17 25.15585 46.53785 6104 ft 215 kts 61°
2026-04-20 21:17 25.16301 46.55244 6032 ft 218 kts 68°
2026-04-20 21:17 25.16431 46.56877 6001 ft 217 kts 106°
2026-04-20 21:18 25.15568 46.58222 6017 ft 220 kts 136°
2026-04-20 21:18 25.14372 46.59315 5787 ft 228 kts 141°
2026-04-20 21:18 25.13116 46.60364 5502 ft 224 kts 142°
2026-04-20 21:18 25.11817 46.61284 5214 ft 219 kts 147°
2026-04-20 21:19 25.10505 46.62102 4933 ft 214 kts 148°
2026-04-20 21:19 25.09238 46.62895 4644 ft 205 kts 147°
2026-04-20 21:19 25.08036 46.63654 4377 ft 194 kts 147°
2026-04-20 21:20 25.05735 46.65111 3891 ft 184 kts 147°
2026-04-20 21:20 25.04678 46.65780 3653 ft 168 kts 148°
2026-04-20 21:20 25.03705 46.66394 3440 ft 155 kts 147°
2026-04-20 21:20 25.02783 46.66977 3228 ft 149 kts 147°
2026-04-20 21:21 25.01899 46.67536 3037 ft 144 kts 147°
2026-04-20 21:21 25.01025 46.68088 2852 ft 146 kts 147°
2026-04-20 21:21 25.00143 46.68648 2669 ft 147 kts 147°
2026-04-20 21:21 24.99250 46.69212 2460 ft 147 kts 148°
2026-04-20 21:22 24.98368 46.69770 2234 ft 145 kts 148°
2026-04-20 21:22 24.97498 46.70320 2038 ft 141 kts 148°
2026-04-20 21:22 24.96769 46.70781 2036 ft 92 kts 150°
2026-04-20 21:22 24.96407 46.71009 2033 ft 28 kts 149°
2026-04-20 21:23 24.96334 46.71060 2030 ft 15 kts 144°
2026-04-20 21:23 24.96252 46.71147 2029 ft 17 kts 130°
2026-04-20 21:23 24.96196 46.71239 2029 ft 13 kts 117°
2026-04-20 21:23 24.96177 46.71319 2037 ft 9 kts 88°
2026-04-20 21:24 24.96182 46.71359 2035 ft 2 kts 79°
2026-04-20 21:24 24.96185 46.71375 2029 ft 1 kts 76°
2026-04-20 21:24 24.96187 46.71383 2029 ft 1 kts 74°
2026-04-20 21:24 24.96189 46.71389 2029 ft 0 kts 70°
2026-04-20 21:26 24.96190 46.71390 2029 ft 1 kts 69°
2026-04-20 21:26 24.96196 46.71405 2033 ft 4 kts 63°
2026-04-20 21:27 24.96215 46.71444 2031 ft 8 kts 60°
2026-04-20 21:27 24.96249 46.71509 2029 ft 12 kts 59°
2026-04-20 21:27 24.96295 46.71596 2033 ft 15 kts 59°
2026-04-20 21:27 24.96352 46.71705 2033 ft 18 kts 59°
2026-04-20 21:28 24.96418 46.71830 2033 ft 20 kts 60°
2026-04-20 21:28 24.96488 46.71963 2031 ft 18 kts 60°
2026-04-20 21:28 24.96545 46.72071 2033 ft 14 kts 59°
2026-04-20 21:28 24.96539 46.72151 2030 ft 12 kts 148°
2026-04-20 21:29 24.96470 46.72195 2034 ft 11 kts 150°
2026-04-20 21:29 24.96411 46.72232 2037 ft 9 kts 151°
2026-04-20 21:29 24.96368 46.72260 2030 ft 2 kts 154°
2026-04-20 21:29 24.96352 46.72258 2033 ft 3 kts 207°
2026-04-20 21:30 24.96340 46.72241 2032 ft 3 kts 238°
2026-04-20 21:30 24.96330 46.72223 2030 ft 3 kts 239°
2026-04-20 21:30 24.96324 46.72212 2037 ft 0 kts 240°